DW6885 Weather Reports


Display with metric or nautical units.
time (UTC)temp
F
wind
direction
speed
MPH
gust
MPH
rain 1hr
in
rain 24hr
in
rain mn
in
humidity
%
barometer
mb
20160830165512 76 185 1.0 5.0 0.00 0.00 0.00 53 1019.1
20160830164511 75 194 0.0 5.0 0.00 0.00 0.00 55 1019.2
20160830161512 73 197 1.0 5.0 0.00 0.00 0.00 56 1019.5
20160830155512 72 101 2.0 5.0 0.00 0.00 0.00 58 1019.8
20160830153515 72 322 2.0 5.0 0.00 0.00 0.00 58 1020.0
20160830151522 71 318 1.0 6.0 0.00 0.00 0.00 60 1020.2
20160830143522 69 21 1.0 5.0 0.00 0.00 0.00 63 1020.6
20160830142513 69 33 2.0 5.0 0.00 0.00 0.00 63 1020.6
20160830141523 68 51 0.0 2.0 0.00 0.00 0.00 67 1020.7
20160830133509 64 205 0.0 2.0 0.00 0.00 0.00 83 1020.9
20160830132509 62 355 0.0 2.0 0.00 0.00 0.00 90 1020.7
20160830131509 61 355 0.0 2.0 0.00 0.00 0.00 98 1020.8
20160830131141 60 355 0.0 2.0 0.00 0.00 0.00 99 1020.8
20160830125450 57 355 0.0 0.0 0.00 0.00 0.00 99 1021.0
20160830124513 56 355 0.0 0.0 0.00 0.00 0.00 99 1021.1
20160830124006 55 355 0.0 0.0 0.00 0.00 0.00 99 1021.1
20160830122513 53 355 0.0 0.0 0.00 0.00 0.00 99 1021.1
20160830120906 50 355 0.0 0.0 0.00 0.00 0.00 98 1021.1
20160830120514 50 355 0.0 0.0 0.00 0.00 0.00 98 1021.2
20160830115411 49 355 0.0 0.0 0.00 0.00 0.00 98 1021.2
20160830113910 48 355 0.0 0.0 0.00 0.00 0.00 98 1021.0
20160830113514 48 355 0.0 0.0 0.00 0.00 0.00 98 1021.0
20160830112515 48 355 0.0 0.0 0.00 0.00 0.00 98 1021.0
20160830112426 47 355 0.0 0.0 0.00 0.00 0.00 98 1021.0
20160830111512 48 355 0.0 0.0 0.00 0.00 0.00 98 1021.1
20160830110907 47 355 0.0 0.0 0.00 0.00 0.00 98 1021.1
20160830105409 47 355 0.0 0.0 0.00 0.00 0.00 97 1020.8
20160830104510 47 355 0.0 0.0 0.00 0.00 0.00 97 1020.8
20160830103925 47 355 0.0 0.0 0.00 0.00 0.00 97 1020.8
20160830103515 47 355 0.0 0.0 0.00 0.00 0.00 97 1020.9
20160830102513 47 355 0.0 0.0 0.00 0.00 0.00 97 1020.8
20160830101513 47 355 0.0 0.0 0.00 0.00 0.00 97 1020.8
20160830100912 47 355 0.0 0.0 0.00 0.00 0.00 97 1020.8
20160830100514 47 355 0.0 0.0 0.00 0.00 0.00 97 1020.8
20160830095410 47 355 0.0 0.0 0.00 0.00 0.00 97 1020.8
20160830094512 47 355 0.0 0.0 0.00 0.00 0.00 97 1020.8
20160830093910 47 355 0.0 0.0 0.00 0.00 0.00 97 1020.7
20160830093514 48 355 0.0 0.0 0.00 0.00 0.00 97 1020.7
20160830092514 48 355 0.0 0.0 0.00 0.00 0.00 96 1020.2
20160830092508 47 355 0.0 0.0 0.00 0.00 0.00 96 1020.4
20160830091006 48 355 0.0 0.0 0.00 0.00 0.00 97 1020.1
20160830085513 49 355 0.0 0.0 0.00 0.00 0.00 97 1020.1
20160830085007 48 355 0.0 0.0 0.00 0.00 0.00 97 1020.1
20160830083512 49 355 0.0 0.0 0.00 0.00 0.00 97 1020.4
20160830082509 49 355 0.0 0.0 0.00 0.00 0.00 96 1020.6
20160830082014 49 355 0.0 0.0 0.00 0.00 0.00 96 1020.7
20160830080608 49 355 0.0 0.0 0.00 0.00 0.00 96 1020.6
20160830075010 49 355 0.0 0.0 0.00 0.00 0.00 96 1020.3
20160830074509 49 355 0.0 0.0 0.00 0.00 0.00 96 1020.2
20160830073517 49 355 0.0 0.0 0.00 0.00 0.00 96 1020.3
20160830072510 50 355 0.0 0.0 0.00 0.00 0.00 96 1020.4
20160830072015 49 355 0.0 0.0 0.00 0.00 0.00 96 1020.5
20160830071515 50 355 0.0 0.0 0.00 0.00 0.00 96 1020.4
20160830070514 50 355 0.0 0.0 0.00 0.00 0.00 96 1020.4
20160830070413 50 355 0.0 0.0 0.00 0.00 0.00 96 1020.4
20160830065013 50 355 0.0 0.0 0.00 0.00 0.00 96 1020.7
20160830063522 51 355 0.0 0.0 0.00 0.00 0.00 96 1020.7
20160830063513 50 355 0.0 0.0 0.00 0.00 0.00 96 1020.8
20160830061907 51 355 0.0 0.0 0.00 0.00 0.00 95 1020.8
20160830061512 51 355 0.0 0.0 0.00 0.00 0.00 95 1020.6
20160830060516 52 355 0.0 0.0 0.00 0.00 0.00 95 1020.7
20160830060509 51 355 0.0 0.0 0.00 0.00 0.00 95 1020.6
20160830055513 52 355 0.0 0.0 0.00 0.00 0.00 95 1020.7
20160830055011 52 355 0.0 0.0 0.00 0.00 0.00 95 1020.7
20160830053517 53 355 0.0 0.0 0.00 0.00 0.00 95 1020.7
20160830053511 52 355 0.0 0.0 0.00 0.00 0.00 95 1020.7
20160830051907 52 355 0.0 0.0 0.00 0.00 0.00 95 1020.7
20160830051511 53 355 0.0 0.0 0.00 0.00 0.00 95 1020.7
20160830050413 52 355 0.0 0.0 0.00 0.00 0.00 95 1020.7
20160830045512 53 355 0.0 0.0 0.00 0.00 0.00 94 1020.6
20160830045007 53 355 0.0 0.0 0.00 0.00 0.00 94 1020.6
20160830043512 54 355 0.0 0.0 0.00 0.00 0.00 94 1020.5
20160830043508 53 355 0.0 0.0 0.00 0.00 0.00 94 1020.5
20160830042511 54 355 0.0 0.0 0.00 0.00 0.00 93 1020.5
20160830041912 54 355 0.0 0.0 0.00 0.00 0.00 93 1020.4
20160830040411 54 355 0.0 0.0 0.00 0.00 0.00 93 1020.3
20160830035513 55 355 0.0 0.0 0.00 0.00 0.00 92 1020.3
20160830034909 54 355 0.0 0.0 0.00 0.00 0.00 92 1020.1
20160830034512 55 355 0.0 0.0 0.00 0.00 0.00 92 1020.3
20160830033511 56 355 0.0 0.0 0.00 0.00 0.00 92 1020.1
20160830033507 55 355 0.0 0.0 0.00 0.00 0.00 92 1020.1
20160830032515 56 355 0.0 0.0 0.00 0.00 0.00 91 1020.1
20160830032006 55 355 0.0 0.0 0.00 0.00 0.00 91 1020.1
20160830031513 56 355 0.0 0.0 0.00 0.00 0.00 90 1020.1
20160830030512 56 355 0.0 0.0 0.00 0.00 0.00 90 1020.2
20160830030405 56 355 0.0 0.0 0.00 0.00 0.00 90 1020.2
20160830025513 57 355 0.0 0.0 0.00 0.00 0.00 89 1020.1
20160830025005 56 355 0.0 0.0 0.00 0.00 0.00 90 1020.0
20160830024513 57 355 0.0 0.0 0.00 0.00 0.00 89 1020.1
20160830023515 58 355 0.0 0.0 0.00 0.00 0.00 87 1020.1
20160830023508 57 355 0.0 0.0 0.00 0.00 0.00 88 1020.1
20160830022515 58 355 0.0 0.0 0.00 0.00 0.00 87 1020.1
20160830022014 58 355 0.0 0.0 0.00 0.00 0.00 87 1020.0
20160830020519 60 355 0.0 0.0 0.00 0.00 0.00 82 1019.9
20160830020514 59 355 0.0 0.0 0.00 0.00 0.00 86 1020.0
20160830015515 61 355 0.0 0.0 0.00 0.00 0.00 81 1019.8
20160830015014 60 355 0.0 0.0 0.00 0.00 0.00 83 1020.0
20160830013510 61 355 0.0 0.0 0.00 0.00 0.00 81 1019.9
20160830012512 63 355 0.0 0.0 0.00 0.00 0.00 77 1019.5
20160830012006 62 355 0.0 0.0 0.00 0.00 0.00 78 1019.5
20160830010513 63 355 0.0 0.0 0.00 0.00 0.00 76 1019.5
20160830005014 63 355 0.0 2.0 0.00 0.00 0.00 74 1019.1
20160830004510 65 355 0.0 1.0 0.00 0.00 0.00 73 1019.2
20160830003530 65 355 0.0 0.0 0.00 0.00 0.00 71 1019.0
20160830003514 66 355 0.0 1.0 0.00 0.00 0.00 70 1018.8
20160830002517 66 355 0.0 1.0 0.00 0.00 0.00 69 1018.8
20160830001908 66 355 0.0 1.0 0.00 0.00 0.00 69 1018.8
20160830000418 67 331 0.0 2.0 0.00 0.00 0.00 68 1018.6
20160829235510 68 114 0.0 2.0 0.00 0.00 0.00 66 1018.6
20160829234914 68 114 0.0 2.0 0.00 0.00 0.00 66 1018.7
20160829234509 68 301 0.0 3.0 0.00 0.00 0.00 65 1018.5
20160829233510 69 284 0.0 3.0 0.00 0.00 0.00 63 1018.6
20160829233417 69 282 0.0 2.0 0.00 0.00 0.00 63 1018.7
20160829232510 70 277 1.0 3.0 0.00 0.00 0.00 63 1018.2
20160829232009 69 274 1.0 5.0 0.00 0.00 0.00 62 1018.1
20160829230510 71 297 0.0 8.0 0.00 0.00 0.00 60 1018.2
20160829230505 70 296 1.0 9.0 0.00 0.00 0.00 60 1018.3
20160829225515 72 258 1.0 8.0 0.00 0.00 0.00 61 1018.1
20160829224845 71 65 0.0 5.0 0.00 0.00 0.00 61 1018.0
20160829224511 72 43 2.0 8.0 0.00 0.00 0.00 61 1018.1
20160829223514 73 249 0.0 8.0 0.00 0.00 0.00 59 1017.8
20160829223214 72 209 0.0 5.0 0.00 0.00 0.00 59 1017.8
20160829222021 73 251 1.0 11.0 0.00 0.00 0.00 57 1017.7
20160829221514 74 312 0.0 7.0 0.00 0.00 0.00 56 1018.0
20160829220513 74 42 1.0 7.0 0.00 0.00 0.00 57 1017.8
20160829215510 75 131 1.0 8.0 0.00 0.00 0.00 55 1017.8
20160829215043 75 290 1.0 8.0 0.00 0.00 0.00 53 1017.7
20160829214512 76 321 3.0 8.0 0.00 0.00 0.00 52 1017.6
20160829213508 76 348 1.0 8.0 0.00 0.00 0.00 52 1017.5
20160829212011 77 319 2.0 9.0 0.00 0.00 0.00 51 1017.4
20160829211511 78 278 1.0 8.0 0.00 0.00 0.00 50 1017.5
20160829210512 77 355 1.0 5.0 0.00 0.00 0.00 49 1017.5
20160829205006 78 218 1.0 11.0 0.00 0.00 0.00 50 1017.4
20160829204512 79 103 1.0 6.0 0.00 0.00 0.00 52 1017.2
20160829203514 78 23 1.0 3.0 0.00 0.00 0.00 48 1016.9
20160829203212 78 61 1.0 8.0 0.00 0.00 0.00 48 1016.9
20160829202005 79 336 3.0 9.0 0.00 0.00 0.00 48 1017.2
20160829200514 80 194 3.0 7.0 0.00 0.00 0.00 46 1016.9
20160829200506 79 35 2.0 7.0 0.00 0.00 0.00 48 1017.0
20160829195519 80 177 3.0 7.0 0.00 0.00 0.00 45 1016.9
20160829194606 79 284 2.0 8.0 0.00 0.00 0.00 44 1016.9
20160829193544 80 131 0.0 8.0 0.00 0.00 0.00 46 1016.8
20160829191545 79 329 3.0 11.0 0.00 0.00 0.00 46 1016.9
20160829190027 80 54 0.0 9.0 0.00 0.00 0.00 49 1016.6
20160829184513 80 317 3.0 9.0 0.00 0.00 0.00 47 1016.6
20160829184508 80 54 2.0 8.0 0.00 0.00 0.00 46 1016.8
20160829183012 80 136 3.0 8.0 0.00 0.00 0.00 48 1016.6
20160829181505 79 76 4.0 10.0 0.00 0.00 0.00 50 1016.9
20160829180008 79 44 2.0 8.0 0.00 0.00 0.00 57 1016.7
20160829175513 80 209 1.0 13.0 0.00 0.00 0.00 53 1016.7
20160829174955 80 307 1.0 12.0 0.00 0.00 0.00 53 1016.8
20160829173513 80 72 2.0 14.0 0.00 0.00 0.00 55 1016.7
20160829173122 78 104 1.0 9.0 0.00 0.00 0.00 56 1016.7
20160829171557 79 360 0.0 8.0 0.00 0.00 0.00 57 1016.6
20160829171512 79 20 2.0 14.0 0.00 0.00 0.00 55 1016.6